TimeMDT,TemperatureF,Dew PointF,Humidity,Sea Level PressureIn,VisibilityMPH,Wind Direction,Wind SpeedMPH,Gust SpeedMPH,PrecipitationIn,Events,Conditions,WindDirDegrees,DateUTC
12:53 AM,55.9,41.0,57,29.91,10.0,Calm,Calm,-,N/A,,Clear,0,2012-10-12 06:53:00
1:53 AM,59.0,44.1,58,29.91,10.0,NW,4.6,-,N/A,,Clear,320,2012-10-12 07:53:00
2:53 AM,55.9,42.1,60,29.91,10.0,NW,6.9,-,N/A,,Scattered Clouds,310,2012-10-12 08:53:00
3:53 AM,55.9,43.0,62,29.89,10.0,NW,4.6,-,N/A,,Clear,320,2012-10-12 09:53:00
4:53 AM,55.0,46.9,74,29.91,10.0,West,5.8,-,0.02,,Overcast,280,2012-10-12 10:53:00
5:53 AM,55.9,46.9,72,29.91,10.0,NW,4.6,-,0.00,,Mostly Cloudy,320,2012-10-12 11:53:00
6:53 AM,55.0,48.9,80,29.92,9.0,ENE,3.5,-,0.00,Rain,Light Rain,60,2012-10-12 12:53:00
7:53 AM,55.9,51.1,84,29.94,10.0,Calm,Calm,-,0.00,,Overcast,0,2012-10-12 13:53:00
8:53 AM,57.9,51.1,78,29.96,10.0,Calm,Calm,-,0.00,,Clear,0,2012-10-12 14:53:00
9:53 AM,64.9,51.1,61,29.93,10.0,SE,8.1,-,N/A,,Clear,140,2012-10-12 15:53:00
10:53 AM,69.1,50.0,51,29.92,10.0,South,10.4,-,N/A,,Clear,170,2012-10-12 16:53:00
11:53 AM,75.0,48.0,38,29.88,10.0,South,20.7,28.8,N/A,,Clear,190,2012-10-12 17:53:00
12:53 PM,79.0,43.0,28,29.84,10.0,South,21.9,38.0,N/A,,Partly Cloudy,180,2012-10-12 18:53:00
1:53 PM,78.1,39.0,25,29.81,10.0,SSW,23.0,31.1,N/A,,Mostly Cloudy,200,2012-10-12 19:53:00
2:53 PM,81.0,37.0,21,29.77,10.0,SSW,33.4,42.6,N/A,,Scattered Clouds,200,2012-10-12 20:53:00
3:53 PM,82.0,30.9,16,29.75,10.0,SW,27.6,43.7,N/A,,Partly Cloudy,220,2012-10-12 21:53:00
4:53 PM,79.0,27.0,15,29.76,10.0,SW,31.1,43.7,N/A,,Clear,220,2012-10-12 22:53:00
5:53 PM,77.0,24.1,14,29.77,10.0,SW,21.9,36.8,N/A,,Clear,230,2012-10-12 23:53:00
6:53 PM,73.0,30.0,20,29.81,10.0,SW,17.3,25.3,N/A,,Clear,220,2012-10-13 00:53:00
7:53 PM,70.0,25.0,18,29.84,10.0,SW,9.2,-,N/A,,Clear,230,2012-10-13 01:53:00
8:53 PM,66.0,21.9,19,29.86,10.0,West,5.8,-,N/A,,Clear,270,2012-10-13 02:53:00
9:53 PM,61.0,23.0,23,29.86,10.0,West,9.2,-,N/A,,Clear,280,2012-10-13 03:53:00
10:53 PM,57.9,23.0,26,29.86,10.0,WNW,6.9,-,N/A,,Clear,290,2012-10-13 04:53:00
11:53 PM,53.1,23.0,31,29.87,10.0,East,3.5,-,N/A,,Clear,90,2012-10-13 05:53:00